Weather History for Santander Airport, Spain

Change the Weather History Date:

Friday, January 30, 2009

  Actual Average Record
Temperature  
Mean Temperature 60 °F -  
Max Temperature 64 °F 52 °F 68 °F (2013)
Min Temperature 57 °F 41 °F 35 °F (2008)
Degree Days  
Heating Degree Days 4    
Growing Degree Days 10 (Base 50)    
Moisture  
Dew Point 43 °F    
Average Humidity 50    
Maximum Humidity 63    
Minimum Humidity 40    
Precipitation  
Precipitation 0.00 in - - ()
Sea Level Pressure  
Sea Level Pressure 29.66 in    
Wind  
Wind Speed 15 mph ()    
Max Wind Speed 23 mph    
Max Gust Speed 38 mph    
Visibility 6.2 miles    
Events      
Averages and records for this station are not official NWS values.
T = Trace of Precipitation, MM = Missing Value Source: Averaged Metar Reports

Daily Weather History Graph

Daily Weather History Graph

Search for Another Location

Airport:

Trip Planner

Search our weather history database for the weather conditions in past years. The results will help you decide how hot, cold, wet, or windy it might be!

Date:

Astronomy

Jan. 30, 2009 Rise Set
Actual Time 8:33 AM CET 6:24 PM CET
Civil Twilight 8:02 AM CET 6:54 PM CET
Nautical Twilight 7:28 AM CET 7:29 PM CET
Astronomical Twilight 6:55 AM CET 8:02 PM CET
Moon 10:09 AM CET (1/30) 11:00 PM CET (1/30)
Length of Visible Light 10h 51m
Length of Day
9h 50m
Waxing Crescent, 16% of the Moon is Illuminated
Jan 30
Waxing Crescent
Feb 3
First Quarter
Feb 9
Full
Feb 16
Last Quarter
Feb 25
New

Hourly Weather History & Observations

Time (CET) Temp. Dew Point Humidity Pressure Visibility Wind Dir Wind Speed Gust Speed Precip Events Conditions
5:30 AM 60.8 °F 46.4 °F 59% 29.77 in - South 17.3 mph - N/A   Clear
6:00 AM 60.8 °F 46.4 °F 59% 29.74 in - SSE 19.6 mph 38.0 mph N/A   Clear
6:30 AM 62.6 °F 44.6 °F 52% 29.71 in - South 23.0 mph - N/A   Clear
7:00 AM 62.6 °F 44.6 °F 52% 29.71 in - South 21.9 mph - N/A   Clear
7:30 AM 62.6 °F 44.6 °F 52% 29.71 in - South 21.9 mph - N/A   Clear
8:00 AM 62.6 °F 42.8 °F 48% 29.71 in - South 18.4 mph 34.5 mph N/A   Clear
8:30 AM 60.8 °F 42.8 °F 52% 29.71 in - South 16.1 mph - N/A   Clear
9:00 AM 62.6 °F 42.8 °F 48% 29.71 in - South 17.3 mph 28.8 mph N/A   Clear
9:30 AM 60.8 °F 42.8 °F 52% 29.71 in - South 17.3 mph - N/A   Clear
10:00 AM 60.8 °F 44.6 °F 55% 29.74 in - South 17.3 mph - N/A   Clear
10:30 AM 62.6 °F 44.6 °F 52% 29.71 in - South 13.8 mph - N/A   Clear
11:00 AM 62.6 °F 46.4 °F 55% 29.71 in - SSW 12.7 mph - N/A   Clear
11:30 AM 62.6 °F 42.8 °F 48% 29.71 in - SSW 17.3 mph 31.1 mph N/A   Clear
12:00 PM 62.6 °F 42.8 °F 48% 29.68 in - SSW 13.8 mph - N/A   Clear
12:30 PM 62.6 °F 42.8 °F 48% 29.68 in - SSW 16.1 mph - N/A   Clear
1:00 PM 62.6 °F 44.6 °F 52% 29.68 in - South 18.4 mph - N/A   Clear
1:30 PM 62.6 °F 44.6 °F 52% 29.68 in - SSW 15.0 mph - N/A   Clear
2:00 PM 62.6 °F 42.8 °F 48% 29.65 in - SSW 13.8 mph - N/A   Clear
2:30 PM 62.6 °F 42.8 °F 48% 29.65 in - SSW 10.4 mph - N/A   Clear
3:00 PM 64.4 °F 42.8 °F 45% 29.62 in - SSW 10.4 mph - N/A   Clear
3:30 PM 64.4 °F 42.8 °F 45% 29.62 in 6.2 mi South 15.0 mph - N/A   Partly Cloudy
4:00 PM 64.4 °F 41.0 °F 42% 29.62 in 6.2 mi South 11.5 mph - N/A   Partly Cloudy
4:30 PM 64.4 °F 41.0 °F 42% 29.62 in 6.2 mi South 9.2 mph - N/A   Partly Cloudy
5:00 PM 64.4 °F 41.0 °F 42% 29.62 in - South 16.1 mph 27.6 mph N/A   Clear
5:30 PM 64.4 °F 39.2 °F 40% 29.62 in - South 13.8 mph 25.3 mph N/A   Clear
6:00 PM 62.6 °F 41.0 °F 45% 29.62 in - South 15.0 mph - N/A   Clear
6:30 PM 60.8 °F 42.8 °F 52% 29.62 in - South 12.7 mph - N/A   Clear
7:00 PM 60.8 °F 42.8 °F 52% 29.62 in - South 12.7 mph - N/A   Clear
7:30 PM 60.8 °F 42.8 °F 52% 29.62 in - South 17.3 mph - N/A   Clear
8:00 PM 60.8 °F 42.8 °F 52% 29.62 in - South 19.6 mph - N/A   Clear
8:30 PM 60.8 °F 42.8 °F 52% 29.62 in - South 23.0 mph - N/A   Clear
9:00 PM 60.8 °F 42.8 °F 52% 29.62 in - South 13.8 mph - N/A   Clear
9:30 PM 59.0 °F 42.8 °F 55% 29.62 in - South 9.2 mph - N/A   Clear
10:00 PM 57.2 °F 44.6 °F 63% 29.62 in - South 3.5 mph - N/A   Clear
10:30 PM 59.0 °F 42.8 °F 55% 29.62 in - SSE 8.1 mph - N/A   Clear
11:00 PM 59.0 °F 39.2 °F 48% 29.62 in - South 10.4 mph - N/A   Clear